sat.trackr.live / text

‹ back to catalog

STARLINK-36212

NORAD 67216 · 2025-304AA

PAYLOAD ACTIVE UNKNOWN

§ Identity

Operator
Country
US
Launch date
2025-12-17
Launch site
AFWTR
Launch vehicle
Mass (kg)
RCS (m²)

Purposes: comms

External: N2YO · Heavens-Above · Gunter

§ Orbital elements

Epoch: 2026-09-19T18:24:54.576576Z

Period
96.11 min
Inclination
70.0013°
Eccentricity
0.0002860
Mean motion
14.98341668 rev/d
Perigee alt
570.0 km
Apogee alt
574.0 km
Semi-major
6,950.2 km
B*
3.4396e-4
RAAN
45.1917°
Arg perigee
272.1762°
Mean anomaly
87.9069°
Rev number
4,295

§ Raw data

STARLINK-362121 67216U 25304AA  26262.76729834  .00004015  00000+0  34396-3 0  99972 67216  70.0013  45.1917 0002860 272.1762  87.9069 14.98341668 42954

JSON: /api/v1/satellites/67216 · /tle

For live sub-satellite position, see the globe view (requires WebGL).

§ Visibility from observer

Set your observer location to see the next 7 days of passes ≥ 10°. The values pass through the URL so the page stays shareable.

No JS? Fill the form by hand. The geolocation button needs JavaScript.